GMT,Max TemperatureF,Mean TemperatureF,Min TemperatureF,Max Dew PointF,MeanDew PointF,Min DewpointF,Max Humidity, Mean Humidity, Min Humidity, Max Sea Level PressureIn, Mean Sea Level PressureIn, Min Sea Level PressureIn, Max VisibilityMiles, Mean VisibilityMiles, Min VisibilityMiles, Max Wind SpeedMPH, Mean Wind SpeedMPH, Max Gust SpeedMPH,PrecipitationIn, CloudCover, Events, WindDirDegrees
2011-10-1,82,68,55,59,54,52,94,67,35,30.27,30.25,30.21,6,5,4,9,2,,0.00,,,162
2011-10-2,80,68,55,57,54,48,94,66,32,30.27,30.23,30.18,6,6,5,14,4,,0.00,,,219
2011-10-3,78,68,59,59,53,48,88,65,36,30.18,30.09,30.01,6,6,5,18,9,30,0.00,2,,223
2011-10-4,64,62,59,59,56,54,94,79,68,30.15,30.12,30.09,6,6,6,17,12,,0.00,5,,248
2011-10-5,66,62,59,59,56,54,88,79,64,30.12,30.02,29.83,6,6,3,21,13,32,0.00,6,Rain,233
2011-10-6,62,56,51,59,45,36,88,68,42,29.89,29.83,29.74,6,6,4,24,19,36,0.00,2,Rain,265
2011-10-7,60,54,48,46,44,41,87,72,52,30.21,30.06,29.89,6,6,6,17,13,,0.00,3,,291
2011-10-8,60,54,48,54,47,45,87,77,63,30.21,30.17,30.12,6,6,6,15,10,,0.00,4,Rain,282
2011-10-9,68,64,59,59,57,55,94,81,68,30.09,30.07,30.04,6,6,6,23,13,,0.00,4,Rain,260
2011-10-10,68,64,60,57,55,54,82,74,60,30.09,30.06,30.04,6,6,6,29,20,37,0.00,5,,258
2011-10-11,66,62,59,55,55,54,88,77,68,30.15,30.09,30.06,6,6,6,23,18,30,0.00,4,,255
2011-10-12,68,62,57,57,55,52,94,80,64,30.24,30.14,30.09,6,6,6,16,12,,0.00,4,,267
2011-10-13,62,56,51,55,53,46,94,83,72,30.45,30.37,30.24,6,6,4,12,5,,0.00,4,,71
2011-10-14,60,53,46,46,42,37,93,70,42,30.48,30.43,30.36,6,6,6,14,6,,0.00,1,,94
2011-10-15,62,52,42,45,42,39,93,72,45,30.36,30.27,30.21,6,6,6,9,4,,0.00,,,137
2011-10-16,62,52,41,54,46,39,100,86,68,30.24,30.21,30.18,6,4,0,13,4,,0.00,3,Fog,272
2011-10-17,62,52,42,52,47,43,100,78,59,30.18,30.03,29.77,6,6,6,20,10,30,0.00,2,,222
2011-10-18,57,52,46,52,40,30,94,69,38,29.92,29.84,29.74,6,6,2,24,16,28,0.00,3,Rain,260
2011-10-19,55,47,39,41,38,32,93,76,41,30.24,30.07,29.92,6,6,6,15,10,,0.00,1,Rain,282
2011-10-20,53,44,35,39,37,34,93,75,51,30.36,30.33,30.27,6,6,6,10,7,,0.00,2,,276
2011-10-21,59,50,41,46,42,36,87,74,55,30.33,30.24,30.15,6,6,6,14,7,25,0.00,5,,207
2011-10-22,57,48,39,45,41,36,87,73,44,30.15,29.97,29.83,6,6,6,16,8,,0.00,4,,148
2011-10-23,66,55,44,54,48,43,94,74,46,29.83,29.71,29.59,6,6,6,18,10,,0.00,3,,144
2011-10-24,64,58,53,54,49,46,94,73,56,29.56,29.40,29.30,6,6,6,18,13,,0.00,4,Rain,122
2011-10-25,60,54,48,54,49,45,94,81,59,29.53,29.42,29.30,6,6,5,14,9,22,0.00,2,Rain,170
2011-10-26,53,48,44,50,45,43,94,88,72,29.74,29.66,29.53,6,6,4,14,7,25,0.00,2,Rain,172
2011-10-27,55,53,51,54,51,48,94,89,82,29.92,29.75,29.68,6,6,3,12,7,,0.00,4,Rain,117
2011-10-28,60,54,48,54,49,46,94,81,59,30.24,30.15,29.92,6,5,3,8,4,,0.00,5,,61
2011-10-29,60,56,53,54,50,46,100,80,59,30.21,30.12,30.06,6,5,2,20,7,23,0.00,4,,208
2011-10-30,60,58,57,57,56,54,94,88,82,30.09,30.06,30.04,6,6,5,14,11,18,0.00,6,,211
2011-10-31,60,58,55,57,54,50,94,85,68,30.01,29.91,29.77,6,6,4,15,10,,0.00,5,,173